Time,TemperatureF,DewpointF,PressureIn,WindDirection,WindDirectionDegrees,WindSpeedMPH,WindSpeedGustMPH,Humidity,HourlyPrecipIn,Conditions,Clouds,dailyrainin,SolarRadiationWatts/m^2,SoftwareType,DateUTC
2013-08-03 04:51:00,64.0,-1.0,-100.00,West,262,4.0,8.0,7,-99.99,,,0.00,0.000000,,2013-08-03 11:51:00,
2013-08-03 05:51:00,63.0,6.0,-100.00,West,260,4.0,7.0,10,-99.99,,,0.00,0.000000,,2013-08-03 12:51:00,
2013-08-03 06:22:00,63.0,6.0,-100.00,West,260,4.0,7.0,10,-99.99,,,0.00,0.000000,,2013-08-03 13:22:00,
2013-08-03 06:32:00,63.0,6.0,-100.00,West,260,4.0,7.0,10,-99.99,,,0.00,0.000000,,2013-08-03 13:32:00,
2013-08-03 06:43:00,63.0,6.0,-100.00,West,260,4.0,7.0,10,-99.99,,,0.00,0.000000,,2013-08-03 13:43:00,
2013-08-03 08:43:00,71.0,12.0,-100.00,SE,128,3.0,7.0,10,-99.99,,,0.00,285.000000,,2013-08-03 15:43:00,
2013-08-03 08:51:00,70.0,9.0,-100.00,ESE,118,9.0,15.0,9,0.00,,,0.00,445.000000,,2013-08-03 15:51:00,
2013-08-03 09:33:00,70.0,9.0,-100.00,ESE,118,9.0,15.0,9,0.00,,,0.00,445.000000,,2013-08-03 16:33:00,
2013-08-03 09:43:00,70.0,9.0,-100.00,ESE,118,9.0,15.0,9,0.00,,,0.00,445.000000,,2013-08-03 16:43:00,
2013-08-03 12:51:00,82.0,12.0,-100.00,SSE,161,16.0,27.0,7,0.00,,,0.00,1214.000000,,2013-08-03 19:51:00,
2013-08-03 13:42:00,82.0,12.0,-100.00,SSE,161,16.0,27.0,7,0.00,,,0.00,1214.000000,,2013-08-03 20:42:00,
2013-08-03 14:32:00,79.0,13.0,-100.00,South,185,15.0,27.0,8,0.00,,,0.00,1110.000000,,2013-08-03 21:32:00,
2013-08-03 14:42:00,79.0,13.0,-100.00,South,185,15.0,27.0,8,0.00,,,0.00,1110.000000,,2013-08-03 21:42:00,
2013-08-03 15:22:00,83.0,16.0,-100.00,South,181,14.0,26.0,8,0.00,,,0.00,1070.000000,,2013-08-03 22:22:00,
2013-08-03 15:33:00,83.0,16.0,-100.00,South,181,14.0,26.0,8,0.00,,,0.00,1070.000000,,2013-08-03 22:33:00,
2013-08-03 15:42:00,83.0,16.0,-100.00,South,181,14.0,26.0,8,0.00,,,0.00,1070.000000,,2013-08-03 22:42:00,
2013-08-03 16:51:00,81.0,17.0,-100.00,South,181,14.0,23.0,9,0.00,,,0.00,855.000000,,2013-08-03 23:51:00,
2013-08-03 17:51:00,81.0,17.0,-100.00,SSW,194,9.0,21.0,9,0.00,,,0.00,578.000000,,2013-08-04 00:51:00,
2013-08-03 18:32:00,81.0,17.0,-100.00,SSW,194,9.0,21.0,9,0.00,,,0.00,578.000000,,2013-08-04 01:32:00,
2013-08-03 18:42:00,81.0,17.0,-100.00,SSW,194,9.0,21.0,9,0.00,,,0.00,578.000000,,2013-08-04 01:42:00,
2013-08-03 18:51:00,78.0,17.0,-100.00,South,182,11.0,18.0,10,0.00,,,0.00,73.000000,,2013-08-04 01:51:00,
2013-08-03 19:32:00,78.0,17.0,-100.00,South,182,11.0,18.0,10,0.00,,,0.00,73.000000,,2013-08-04 02:32:00,
2013-08-03 19:42:00,78.0,17.0,-100.00,South,182,11.0,18.0,10,0.00,,,0.00,73.000000,,2013-08-04 02:42:00,
2013-08-03 20:32:00,75.0,12.0,-100.00,NW,312,1.0,14.0,9,0.00,,,0.00,38.000000,,2013-08-04 03:32:00,
2013-08-03 20:51:00,71.0,16.0,-100.00,WSW,253,4.0,6.0,12,0.00,,,0.00,0.000000,,2013-08-04 03:51:00,
2013-08-03 21:12:00,71.0,16.0,-100.00,WSW,253,4.0,6.0,12,0.00,,,0.00,0.000000,,2013-08-04 04:12:00,
2013-08-03 21:22:00,71.0,16.0,-100.00,WSW,253,4.0,6.0,12,0.00,,,0.00,0.000000,,2013-08-04 04:22:00,
2013-08-03 21:32:00,71.0,16.0,-100.00,WSW,253,4.0,6.0,12,0.00,,,0.00,0.000000,,2013-08-04 04:32:00,
2013-08-03 21:42:00,71.0,16.0,-100.00,WSW,253,4.0,6.0,12,0.00,,,0.00,0.000000,,2013-08-04 04:42:00,
2013-08-03 22:12:00,72.0,15.0,-100.00,SW,219,1.0,5.0,11,0.00,,,0.00,0.000000,,2013-08-04 05:12:00,
2013-08-03 22:22:00,72.0,15.0,-100.00,SW,219,1.0,5.0,11,0.00,,,0.00,0.000000,,2013-08-04 05:22:00,
2013-08-03 22:32:00,72.0,15.0,-100.00,SW,219,1.0,5.0,11,0.00,,,0.00,0.000000,,2013-08-04 05:32:00,
2013-08-03 22:42:00,72.0,15.0,-100.00,SW,219,1.0,5.0,11,0.00,,,0.00,0.000000,,2013-08-04 05:42:00,